Regional Weather Roundup
Issued by NWS Charleston, WV

Home | Current Version | Previous Version | Text Only | Print | Product List | Glossary Off
Versions: 1 2 3 4 5 6 7 8 9 10 11 12 13 14 15 16 17 18 19 20 21 22 23 24 25 26 27 28 29 30 31 32 33 34 35 36 37 38 39 40 41 42 43 44

000
ASUS41 KRLX 210610
RWRRLX
West Virginia Regional Weather Roundup
National Weather Service Charleston WV
200 AM EDT TUE OCT 21 2014

Note: "fair" indicates few or no clouds below 12,000 feet with no
significant weather and/or obstructions to visibility.

WVZ003-210700-
Northern Panhandle of West Virginia

CITY           SKY/WX    TMP DP  RH WIND       PRES   REMARKS
WHEELING       LGT RAIN  49  47  93 SW5       29.86F FOG
$$

WVZ009-210700-
Northwest West Virginia

CITY           SKY/WX    TMP DP  RH WIND       PRES   REMARKS
PARKERSBURG    MOCLDY    51  47  86 W5        29.91S
$$

WVZ006-210700-
Western West Virginia

CITY           SKY/WX    TMP DP  RH WIND       PRES   REMARKS
HUNTINGTON     CLOUDY    52  49  89 CALM      29.92R
$$

WVZ015-210700-
West Central West Virginia

CITY           SKY/WX    TMP DP  RH WIND       PRES   REMARKS
CHARLESTON     MOCLDY    51  50  96 W7        29.92S
$$

WVZ022-031-210700-
North Central West Virginia

CITY           SKY/WX    TMP DP  RH WIND       PRES   REMARKS
CLARKSBURG     CLOUDY    52  47  83 SW7       29.89S
MORGANTOWN     CLOUDY    53  47  79 CALM      29.89S
$$

WVZ025-035-042-045-210700-
Southern West Virginia

CITY           SKY/WX    TMP DP  RH WIND       PRES   REMARKS
BECKLEY        PTCLDY    49  44  83 SW8       29.95F
LOGAN            N/A     52  48  87 SW5       29.93F
BLUEFIELD      PTCLDY    51  43  74 SW6       29.97F
LEWISBURG      MOCLDY    49  46  92 CALM      29.95S
$$

WVZ047-210700-
Northern Mountains of West Virginia

CITY           SKY/WX    TMP DP  RH WIND       PRES   REMARKS
ELKINS         MOCLDY    50  46  86 CALM      29.92F
$$

WVZ052-210700-
Eastern Panhandle of West Virginia

CITY           SKY/WX    TMP DP  RH WIND       PRES   REMARKS
MARTINSBURG    CLOUDY    52  48  86 CALM      29.89F
PETERSBURG     MOCLDY   N/A N/A N/A CALM      29.91F
$$


USA.gov is the U.S. government's official web portal to all federal, state and local government web resources and services.